Other Public Products
Issued by NWS Charleston, SC

Home | Current Version | Previous Version | Text Only | Print | Product List | Glossary On
Versions: 1 2 3 4 5 6 7 8 9 10 11 12 13 14 15 16 17 18 19 20 21 22 23 24 25 26 27 28 29 30 31 32 33 34 35 36 37 38 39 40 41 42 43 44 45 46 47 48 49 50
241
FPUS82 KCHS 130126
OPUCHS

TEST...KCHS/KSAV Gateway Observations...TEST
National Weather Service Charleston SC
800 PM EST TUE DEC 12 2017

NOTE: "fair" indicates few or no clouds below 12,000 feet with no
significant weather and/or obstructions to visibility.

SCZ050-WAZ558-NCZ071-TXZ119-213-PAZ071-DCZ001-FLZ074-172-MI076-
NYZ176-178-MAZ016-IL014-TNZ027-NJZ106-GAZ044-MD014-130200-

...Gateway Observations for Charleston International...

CITY           SKY/WX    TMP DP  RH WIND       PRES   REMARKS
Chas Airport   CLEAR     50  34  54 W13G22    29.81R
Seattle        PTCLDY    41  34  76 N5        30.40S
Charlotte      CLEAR     38  18  44 N8        29.82R WCI  32
Dallas DFW     CLEAR     51  27  39 NW9       30.25S
Dallas Love    CLEAR     51  28  41 NW3       30.26S
Philladelphia  CLOUDY    36  14  40 NW25G33   29.57R WCI  24
Wash National  CLOUDY    33  14  45 NW23G39   29.71R WCI  21
Baltimore      PTCLDY    30  13  49 NW14G35   29.66R WCI  19
Miami          CLEAR     66  58  75 SW8       29.99R
Detroit        MOCLDY    18   5  57 NW12      29.91S WCI   5
Newark         CLOUDY    37  24  59 NW17G29   29.49R WCI  27
Laguardia      FLURRIES  37  29  72 NW25G36   29.47R WCI  25
J F K          LGT RAIN  38  31  76 W28G40    29.48R WCI  26
Boston Logan   LGT RAIN  37  36  96 W9        29.30S WCI  30
Ft. Lauderdale CLEAR     65  58  78 SW8       29.97R
Chicago O`Hare PTCLDY    18   8  65 W8        30.01S WCI   8
Chicago Midway PTCLDY    20   9  62 W10       30.02F WCI   9
Houston Bush   PTCLDY    53  30  41 NW3       30.24S
Houston Hobby  CLEAR     54  30  40 N9        30.24R
Nashville      CLEAR     33   8  35 NW8       30.12R WCI  26
Atlanta        CLEAR     42  26  53 W15       29.95R

$$

GAZ044-118-TXZ119-213-NCZ071-DCZ001-MDZ014-506-PAZ021-071-NJZ106-
NYZ176-178-MAZ106-OHZ011-021-055-MIZ076-KYZ091-ILZ014-INZ047-
MNZ060-ONZ431-130200-

...Gateway Observations for Savannah International...

CITY           SKY/WX    TMP DP  RH WIND       PRES   REMARKS
Savannah Arpt  NOT AVBL
Atlanta        CLEAR     42  26  53 W15       29.95R
Charlotte      CLEAR     38  18  44 N8        29.82R WCI  32
Dallas DFW     CLEAR     51  27  39 NW9       30.25S
Houston Bush   PTCLDY    53  30  41 NW3       30.24S
Wash National  CLOUDY    33  14  45 NW23G39   29.71R WCI  21
Wash Dulles    PTCLDY    28  10  46 NW26G39   29.70R WCI  13
Baltimore      PTCLDY    30  13  49 NW14G35   29.66R WCI  19
Philadelphia   CLOUDY    36  14  40 NW25G33   29.57R WCI  24
Newark         CLOUDY    37  24  59 NW17G29   29.49R WCI  27
Laguardia      FLURRIES  37  29  72 NW25G36   29.47R WCI  25
J F K          LGT RAIN  38  31  76 W28G40    29.48R WCI  26
Boston         LGT RAIN  37  36  96 W9        29.30S WCI  30
Pittsburg      LGT SNOW  18  12  77 W16       29.80S WCI   3
Akron          LGT SNOW  16  11  80 W12       29.82S VSB 1   WCI   3
Cleveland      CLOUDY    20   4  50 NW20G31   29.87S WCI   4
Cincinnati     PTCLDY    22   9  57 NW8       30.00R WCI  12
Columbus       CLOUDY    20  17  88 NW13      29.95S WCI   7
Detroit        MOCLDY    18   5  57 NW12      29.91S WCI   5
Chicago O`Hare PTCLDY    18   8  65 W8        30.01S WCI   8
Minneapolis    CLOUDY    21  16  81 SE7       29.85F WCI  12
Indianapolis   PTCLDY    20   7  57 W9        30.03S WCI   9
Toronto Canada CLOUDY    14   1  57 W23G32    29.63S WCI  -5

$$




USA.gov is the U.S. government's official web portal to all federal, state and local government web resources and services.